Location: Chiroubles
(46.1812°N, 4.6660°E)
Time: 17:28:01
(UTC+00:00)

CSL-04 Deb - Pass Details

Date: 09 December 2021
Orbit: 623 x 716 km, 98.3° (Epoch: 27 January)

Event Time Altitude Azimuth Distance (km) Brightness Sun altitude
Rises 06:24:30 0° 34° (NNE) 3,075 ? -8.0°
Reaches altitude 10° 06:28:09 10° 63° (ENE) 2,171 ? -7.5°
Maximum altitude 06:30:10 13° 88° (E) 2,009 ? -7.1°
Drops below altitude 10° 06:32:11 10° 113° (ESE) 2,182 ? -6.8°
Sets 06:35:51 0° 143° (SE) 3,106 ? -6.3°
